Regional Weather Roundup
Issued by NWS

Home | Current Version | Previous Version | Graphics & Text | Print | Product List | Glossary On
Versions: 1 2 3 4 5 6 7 8 9 10 11 12 13 14 15 16 17 18 19 20 21 22 23 24 25 26 27 28 29 30 31 32 33 34 35 36 37 38 39 40 41 42 43 44 45 46 47 48 49 50
000
ASUS43 KBIS 271420
RWRND

NORTH DAKOTA REGIONAL WEATHER ROUNDUP
NATIONAL WEATHER SERVICE BISMARCK ND
900 AM CDT MON APR 27 2015

NOTE: "FAIR" INDICATES FEW OR NO CLOUDS BELOW 12,000 FEET WITH NO
SIGNIFICANT WEATHER AND/OR OBSTRUCTIONS TO VISIBILITY.


NDZ001>003-009>011-017-271500-
NORTHWEST NORTH DAKOTA

CITY           SKY/WX    TMP DP  RH WIND       PRES   REMARKS
WILLISTON      LGT RAIN  42  39  89 W7        30.32R
MINOT          LGT RAIN  41  37  86 NW10      30.27R
MINOT AFB      LGT RAIN  41  41 100 NW9       30.26R
$$

NDZ018>021-031>035-040>046-271500-
SOUTHWEST NORTH DAKOTA

CITY           SKY/WX    TMP DP  RH WIND       PRES   REMARKS
BISMARCK       CLOUDY    47  45  93 N7        30.24R
DICKINSON      LGT RAIN  40  37  89 NW10      30.27R FOG
GARRISON         N/A     41  38  89 N10       30.25S
HETTINGER ARPT CLOUDY    42  39  89 NW10      30.27R
$$

NDZ004>008-012>016-024-026-027-054-271500-
NORTHEAST NORTH DAKOTA

CITY           SKY/WX    TMP DP  RH WIND       PRES   REMARKS
GRAND FORKS    MOSUNNY   50  43  77 NW5       30.21R
GRND FRKS AFB  FAIR      51  42  72 N7        30.22R
DEVILS LAKE    CLOUDY    46  37  71 N12       30.22S
$$

NDZ022-023-025-028>030-036>039-047>053-271500-
SOUTHEAST NORTH DAKOTA

CITY           SKY/WX    TMP DP  RH WIND       PRES   REMARKS
FARGO          MOSUNNY   52  27  38 SW3       30.23R
JAMESTOWN      MOSUNNY   51  35  54 NW3       30.21R
$$




USA.gov is the U.S. government's official web portal to all federal, state and local government web resources and services.